Location: Chapel Hill
(35.9134°N, 79.0560°W)
Time: 04:54:05
(UTC-04:00)

ACS3 Solar Sail - Pass Details

Date: 23 June 2024
Orbit: 993 x 1022 km, 97.4° (Epoch: 23 July)

Event Time Altitude Azimuth Distance (km) Brightness Sun altitude
Exits shadow 00:16:59 15° 245° (WSW) 2,421 6.8 -28.9°
Maximum altitude 00:19:10 18° 270° (W) 2,259 6.8 -29.0°
Drops below altitude 10° 00:23:09 10° 310° (NW) 2,765 7.8 -29.2°
Sets 00:26:36 0° 329° (NNW) 3,716 8.9 -29.4°
